Total_Precipitation_Accumulation
1.83 2.06 2.22 2.42 2.71 2.95 3.13 3.39 3.63 4.00 4.30 4.72 5.07 5.28 5.46 5.65 5.72 5.66 5.61 5.58 5.56 5.70 5.76 5.46 5.47 5.40 5.26 5.04 5.00 4.88 4.63 4.34 4.33 4.22 3.76 3.16 2.78 2.72 2.62 2.61 2.82 2.79 2.67
1.84 2.20 2.55 2.97 3.20 3.36 3.44 3.68 4.04 4.35 4.52 4.93 5.48 5.97 6.18 6.27 6.27 6.27 6.38 6.40 6.38 6.54 6.58 6.55 6.29 6.08 5.81 5.32 4.97 4.82 4.57 4.18 4.32 4.38 4.36 3.65 3.15 2.61 2.16 2.25 2.29 2.36 2.62
2.04 2.34 2.81 3.16 3.24 3.34 3.46 3.65 4.19 4.66 5.13 5.59 6.16 6.66 6.99 7.00 6.83 6.50 6.58 6.71 6.53 6.58 6.76 6.76 6.53 6.17 5.60 5.04 4.90 4.87 4.70 4.42 4.36 4.30 4.55 3.97 3.39 2.92 2.40 2.09 2.00 2.13 2.29
2.01 2.35 2.64 2.93 3.08 3.21 3.48 3.73 4.16 4.86 5.40 5.71 6.34 7.00 7.26 7.46 7.49 7.28 6.98 6.77 6.51 6.36 6.29 6.16 5.76 5.36 4.98 4.68 4.53 4.62 4.51 4.50 4.31 4.25 3.96 3.68 3.35 3.11 2.72 2.24 2.01 2.08 2.14
1.80 2.17 2.39 2.66 3.01 3.12 3.22 3.45 4.04 4.71 5.45 6.08 6.58 7.19 7.68 7.89 7.82 7.38 6.89 6.36 6.01 5.57 5.14 4.81 4.62 4.54 4.37 4.18 4.04 4.06 3.95 3.77 3.69 3.72 3.69 3.63 3.34 3.01 2.82 2.52 2.29 2.25 2.06
1.67 1.86 2.13 2.38 2.70 2.80 3.03 3.32 3.76 4.50 5.22 5.83 6.41 6.94 7.34 7.43 7.11 6.57 6.02 5.66 5.27 4.73 4.19 3.93 3.82 3.71 3.50 3.27 3.18 3.20 3.20 3.28 3.36 3.45 3.46 3.42 3.33 3.12 3.11 2.90 2.61 2.47 2.30
1.67 1.87 2.05 2.34 2.50 2.59 2.85 3.21 3.74 4.38 4.79 5.27 5.79 6.13 6.33 6.46 6.42 6.08 5.61 5.23 4.74 4.27 3.79 3.39 3.24 2.97 2.78 2.68 2.72 2.71 2.68 2.82 2.93 3.04 3.14 3.14 3.05 2.95 3.04 3.15 2.89 2.61 2.43
1.76 2.05 2.19 2.38 2.56 2.60 2.78 3.12 3.57 4.00 4.21 4.41 4.82 5.17 5.31 5.36 5.22 5.02 4.63 4.30 3.95 3.65 3.38 2.99 2.68 2.43 2.30 2.22 2.37 2.38 2.37 2.47 2.59 2.66 2.89 2.87 2.77 2.84 2.90 3.06 3.20 3.10 2.72
1.81 2.05 2.25 2.39 2.51 2.56 2.74 2.92 3.14 3.34 3.54 3.71 3.93 4.14 4.18 4.09 3.94 3.77 3.52 3.31 3.10 2.80 2.68 2.50 2.34 2.20 2.13 2.14 2.19 2.17 2.20 2.37 2.44 2.47 2.62 2.74 2.70 2.72 2.74 2.84 2.98 3.09 2.90
1.82 1.98 2.07 2.22 2.31 2.30 2.41 2.49 2.68 2.82 3.01 3.12 3.15 3.07 3.10 3.04 2.87 2.68 2.59 2.43 2.24 2.13 2.15 2.12 2.14 2.08 2.01 2.06 2.12 2.00 2.03 2.16 2.18 2.18 2.29 2.39 2.41 2.51 2.54 2.64 2.76 2.84 2.81
1.72 1.79 1.85 1.91 1.94 1.93 1.99 2.11 2.26 2.44 2.55 2.59 2.69 2.62 2.49 2.31 2.20 2.04 1.97 1.91 1.83 1.81 1.81 1.86 1.89 1.91 1.90 1.94 1.93 1.79 1.82 1.89 2.04 2.14 2.21 2.26 2.28 2.36 2.33 2.33 2.37 2.49 2.67
1.70 1.62 1.60 1.62 1.67 1.72 1.79 1.90 1.93 2.04 2.08 2.14 2.15 2.14 2.09 1.99 1.87 1.79 1.72 1.72 1.72 1.70 1.70 1.71 1.69 1.74 1.85 1.93 1.86 1.71 1.68 1.80 1.93 2.07 2.22 2.19 2.11 2.14 2.17 2.22 2.19 2.22 2.39
1.73 1.68 1.64 1.58 1.61 1.75 1.78 1.73 1.77 1.83 1.85 1.90 1.86 1.84 1.94 1.89 1.79 1.76 1.78 1.77 1.72 1.68 1.65 1.60 1.59 1.65 1.71 1.74 1.71 1.63 1.61 1.66 1.74 1.85 1.90 1.94 1.95 1.89 1.87 1.91 1.96 1.95 1.99
1.84 1.86 1.90 1.86 1.75 1.76 1.91 1.86 1.83 1.83 1.87 1.90 1.83 1.68 1.66 1.70 1.74 1.71 1.68 1.63 1.58 1.60 1.64 1.61 1.56 1.54 1.49 1.40 1.35 1.35 1.41 1.45 1.45 1.51 1.53 1.62 1.73 1.75 1.76 1.70 1.76 1.84 1.98
2.03 2.00 1.92 1.92 1.82 1.76 1.91 1.97 1.89 1.79 2.03 2.08 1.98 1.81 1.64 1.65 1.69 1.66 1.60 1.54 1.48 1.39 1.46 1.51 1.43 1.32 1.18 1.02 1.04 1.12 1.16 1.25 1.27 1.29 1.23 1.24 1.45 1.59 1.55 1.40 1.55 1.75 1.91
2.20 2.16 2.12 2.12 2.06 1.94 1.99 2.11 2.03 1.88 2.01 2.03 2.09 2.10 1.99 1.95 1.86 1.70 1.61 1.61 1.60 1.54 1.46 1.43 1.35 1.23 0.99 0.98 0.95 1.06 1.21 1.31 1.27 1.30 1.27 1.18 1.24 1.33 1.29 1.20 1.33 1.57 1.65
2.49 2.45 2.43 2.39 2.40 2.37 2.30 2.27 2.13 1.99 2.00 2.10 2.17 2.14 2.07 2.01 1.96 1.73 1.62 1.68 1.67 1.64 1.57 1.44 1.39 1.34 1.23 1.10 0.93 0.96 1.11 1.23 1.24 1.26 1.27 1.11 1.04 1.22 1.24 1.24 1.24 1.30 1.31
2.49 2.51 2.61 2.57 2.57 2.48 2.42 2.31 2.18 2.17 2.21 2.21 2.18 2.10 1.95 1.93 1.89 1.81 1.77 1.73 1.65 1.62 1.59 1.50 1.39 1.29 1.07 0.93 0.81 0.84 0.97 1.17 1.22 1.20 1.26 1.30 1.21 1.14 1.20 1.21 1.23 1.28 1.31
2.56 2.52 2.51 2.47 2.52 2.45 2.35 2.29 2.24 2.25 2.26 2.20 2.04 1.93 1.83 1.85 1.77 1.78 1.73 1.68 1.60 1.55 1.49 1.41 1.34 1.27 1.10 0.90 0.76 0.82 0.98 1.17 1.19 1.16 1.15 1.23 1.24 1.20 1.17 1.22 1.34 1.40 1.41
2.32 2.24 2.07 2.02 2.18 2.32 2.31 2.21 2.15 2.14 2.11 1.92 1.70 1.57 1.60 1.69 1.57 1.50 1.47 1.45 1.46 1.45 1.36 1.27 1.27 1.25 1.21 1.07 0.89 0.88 0.96 1.11 1.15 1.21 1.19 1.13 1.14 1.18 1.16 1.25 1.41 1.44 1.42
1.82 1.77 1.73 1.76 1.89 1.94 2.00 2.03 1.95 1.98 1.88 1.70 1.57 1.53 1.47 1.45 1.42 1.42 1.44 1.37 1.30 1.34 1.35 1.34 1.28 1.20 1.11 0.99 0.86 0.84 0.79 0.94 1.07 1.11 1.19 1.15 1.09 1.09 1.11 1.24 1.31 1.33 1.29
1.46 1.42 1.53 1.63 1.70 1.63 1.60 1.72 1.76 1.74 1.63 1.56 1.49 1.52 1.46 1.32 1.36 1.52 1.46 1.40 1.42 1.42 1.37 1.33 1.25 1.10 1.00 0.88 0.79 0.79 0.79 0.85 1.00 1.12 1.16 1.10 1.08 1.09 1.14 1.16 1.21 1.22 1.29
1.19 1.26 1.31 1.43 1.57 1.58 1.57 1.61 1.60 1.51 1.49 1.56 1.54 1.46 1.36 1.43 1.46 1.52 1.46 1.37 1.35 1.27 1.16 1.12 1.06 0.95 0.86 0.78 0.73 0.74 0.78 0.86 0.93 1.00 1.04 1.01 1.03 1.07 1.19 1.23 1.24 1.33 1.51
1.07 1.15 1.20 1.22 1.35 1.38 1.40 1.49 1.43 1.41 1.53 1.63 1.58 1.45 1.34 1.32 1.36 1.38 1.36 1.25 1.16 1.10 1.03 1.00 0.96 0.91 0.88 0.79 0.73 0.75 0.76 0.79 0.85 0.90 0.97 1.04 1.10 1.14 1.26 1.39 1.48 1.52 1.57
1.21 1.20 1.22 1.21 1.17 1.16 1.20 1.19 1.23 1.35 1.54 1.50 1.36 1.25 1.13 1.10 1.15 1.15 1.12 1.09 0.97 0.92 0.90 0.83 0.79 0.86 0.86 0.78 0.78 0.76 0.74 0.75 0.79 0.83 0.99 1.21 1.27 1.36 1.45 1.49 1.54 1.59 1.52
1.16 1.21 1.16 1.07 1.08 1.12 1.14 1.08 1.03 1.15 1.38 1.36 1.15 1.00 0.93 0.91 0.85 0.83 0.85 0.83 0.80 0.78 0.74 0.73 0.69 0.65 0.66 0.65 0.65 0.68 0.73 0.76 0.81 0.84 1.04 1.17 1.24 1.34 1.41 1.43 1.45 1.49 1.51